TimeCST,TemperatureF,Dew PointF,Humidity,Sea Level PressureIn,VisibilityMPH,Wind Direction,Wind SpeedMPH,Gust SpeedMPH,PrecipitationIn,Events,Conditions,WindDirDegrees,DateUTC
12:14 AM,37.4,33.8,87,30.04,1.2,SE,11.5,-,N/A,,Haze,140,2012-12-01 06:14:00
12:34 AM,39.2,33.8,81,30.03,1.2,SE,11.5,17.3,N/A,,Haze,130,2012-12-01 06:34:00
12:54 AM,39.2,33.8,81,30.01,1.2,SE,12.7,17.3,N/A,,Haze,130,2012-12-01 06:54:00
1:14 AM,39.2,33.8,81,30.01,1.8,SE,12.7,17.3,N/A,,Haze,140,2012-12-01 07:14:00
1:34 AM,39.2,33.8,81,29.99,2.0,SE,12.7,17.3,N/A,,Haze,130,2012-12-01 07:34:00
1:54 AM,39.2,33.8,81,29.98,2.5,SE,12.7,-,N/A,,Haze,130,2012-12-01 07:54:00
2:14 AM,39.2,33.8,81,29.97,2.5,SE,12.7,-,N/A,,Haze,130,2012-12-01 08:14:00
2:34 AM,39.2,33.8,81,29.98,2.5,SE,13.8,-,N/A,,Haze,140,2012-12-01 08:34:00
2:54 AM,39.2,32.0,75,29.97,2.5,SE,13.8,19.6,N/A,,Haze,140,2012-12-01 08:54:00
3:14 AM,37.4,32.0,81,29.96,2.5,SE,12.7,-,N/A,,Haze,130,2012-12-01 09:14:00
3:34 AM,37.4,30.2,75,29.94,2.5,SE,15.0,-,N/A,,Haze,130,2012-12-01 09:34:00
3:54 AM,37.4,30.2,75,29.93,2.5,SE,15.0,23.0,N/A,,Haze,140,2012-12-01 09:54:00
4:14 AM,37.4,30.2,75,29.92,2.5,SE,15.0,20.7,N/A,,Haze,130,2012-12-01 10:14:00
4:34 AM,37.4,30.2,75,29.92,3.0,SE,15.0,20.7,N/A,,Haze,140,2012-12-01 10:34:00
4:54 AM,37.4,30.2,75,29.91,3.0,SE,16.1,-,N/A,,Haze,130,2012-12-01 10:54:00
5:14 AM,37.4,30.2,75,29.90,3.0,SE,17.3,-,N/A,,Haze,130,2012-12-01 11:14:00
5:34 AM,37.4,30.2,75,29.89,3.0,SE,18.4,-,N/A,,Haze,130,2012-12-01 11:34:00
5:54 AM,37.4,30.2,75,29.89,3.0,SE,17.3,-,N/A,,Haze,140,2012-12-01 11:54:00
6:14 AM,37.4,30.2,75,29.88,3.0,SE,18.4,21.9,N/A,,Haze,130,2012-12-01 12:14:00
6:34 AM,37.4,30.2,75,29.87,3.0,SE,18.4,-,N/A,,Haze,140,2012-12-01 12:34:00
6:54 AM,39.2,32.0,75,29.86,3.0,SE,16.1,23.0,N/A,,Haze,140,2012-12-01 12:54:00
7:14 AM,39.2,33.8,81,29.85,4.0,SE,17.3,-,N/A,,Haze,140,2012-12-01 13:14:00
7:34 AM,41.0,33.8,76,29.85,5.0,SE,16.1,-,N/A,,Haze,140,2012-12-01 13:34:00
7:54 AM,42.8,33.8,70,29.83,5.0,SSE,19.6,24.2,N/A,,Haze,150,2012-12-01 13:54:00
8:14 AM,42.8,33.8,70,29.82,5.0,SE,18.4,21.9,N/A,,Haze,140,2012-12-01 14:14:00
8:34 AM,42.8,33.8,70,29.82,4.0,SSE,19.6,25.3,N/A,,Haze,150,2012-12-01 14:34:00
8:54 AM,44.6,33.8,66,29.82,5.0,SSE,17.3,24.2,N/A,,Haze,150,2012-12-01 14:54:00
9:14 AM,44.6,33.8,66,29.81,5.0,SSE,21.9,26.5,N/A,,Haze,150,2012-12-01 15:14:00
9:34 AM,44.6,33.8,66,29.80,5.0,SSE,18.4,24.2,N/A,,Haze,150,2012-12-01 15:34:00
9:54 AM,44.6,33.8,66,29.81,5.0,SSE,17.3,24.2,N/A,,Haze,160,2012-12-01 15:54:00
10:14 AM,44.6,33.8,66,29.81,5.0,SSE,15.0,-,N/A,,Haze,160,2012-12-01 16:14:00
10:34 AM,46.4,35.6,66,29.82,5.0,South,12.7,20.7,N/A,,Haze,180,2012-12-01 16:34:00
10:54 AM,46.4,35.6,66,29.82,4.0,South,12.7,17.3,N/A,,Haze,180,2012-12-01 16:54:00
11:14 AM,46.4,37.4,71,29.81,4.0,South,13.8,18.4,N/A,,Haze,180,2012-12-01 17:14:00
11:34 AM,46.4,37.4,71,29.79,4.0,South,13.8,-,N/A,,Haze,170,2012-12-01 17:34:00
11:54 AM,46.4,37.4,71,29.77,3.0,SSE,12.7,-,N/A,,Haze,160,2012-12-01 17:54:00
12:14 PM,46.4,37.4,71,29.76,4.0,SSE,15.0,-,N/A,,Haze,160,2012-12-01 18:14:00
12:34 PM,48.2,37.4,66,29.74,4.0,SSE,16.1,-,N/A,,Haze,160,2012-12-01 18:34:00
12:54 PM,48.2,39.2,71,29.74,4.0,South,12.7,24.2,N/A,,Haze,180,2012-12-01 18:54:00
1:14 PM,48.2,39.2,71,29.73,4.0,South,11.5,-,N/A,,Haze,170,2012-12-01 19:14:00
1:34 PM,50.0,39.2,66,29.73,4.0,South,12.7,19.6,N/A,,Haze,170,2012-12-01 19:34:00
1:54 PM,50.0,39.2,66,29.73,4.0,South,13.8,-,N/A,,Haze,180,2012-12-01 19:54:00
2:14 PM,51.8,42.8,71,29.73,4.0,South,13.8,17.3,N/A,,Haze,190,2012-12-01 20:14:00
2:34 PM,51.8,42.8,71,29.71,4.0,South,10.4,-,N/A,,Haze,180,2012-12-01 20:34:00
2:54 PM,51.8,42.8,71,29.72,4.0,South,5.8,-,N/A,,Haze,170,2012-12-01 20:54:00
3:14 PM,50.0,42.8,76,29.72,3.0,South,6.9,-,N/A,,Haze,170,2012-12-01 21:14:00
3:34 PM,50.0,42.8,76,29.73,3.0,South,6.9,-,N/A,,Haze,180,2012-12-01 21:34:00
3:54 PM,51.8,42.8,71,29.73,3.0,SSW,8.1,-,N/A,,Haze,200,2012-12-01 21:54:00
4:14 PM,53.6,44.6,72,29.74,4.0,SSW,9.2,-,N/A,,Haze,210,2012-12-01 22:14:00
4:34 PM,53.6,44.6,72,29.74,5.0,SSW,12.7,-,N/A,,Haze,210,2012-12-01 22:34:00
4:54 PM,53.6,44.6,72,29.74,5.0,SSW,11.5,-,N/A,,Haze,210,2012-12-01 22:54:00
5:14 PM,51.8,44.6,76,29.76,5.0,SW,9.2,-,N/A,,Haze,220,2012-12-01 23:14:00
5:34 PM,51.8,44.6,76,29.76,5.0,SW,8.1,-,N/A,,Haze,230,2012-12-01 23:34:00
5:54 PM,51.8,44.6,76,29.76,4.0,SW,8.1,-,N/A,,Haze,220,2012-12-01 23:54:00
6:14 PM,51.8,44.6,76,29.77,4.0,SW,6.9,-,N/A,,Haze,220,2012-12-02 00:14:00
6:34 PM,50.0,44.6,82,29.77,3.0,SW,6.9,-,N/A,,Haze,220,2012-12-02 00:34:00
6:54 PM,50.0,44.6,82,29.77,2.5,SSW,8.1,-,N/A,,Haze,210,2012-12-02 00:54:00
7:14 PM,48.2,42.8,82,29.78,2.5,SSW,6.9,-,N/A,,Haze,210,2012-12-02 01:14:00
7:54 PM,48.2,42.8,82,29.79,2.0,SW,5.8,-,N/A,,Haze,230,2012-12-02 01:54:00
8:14 PM,44.6,39.2,81,29.79,1.0,SW,4.6,-,N/A,,Haze,220,2012-12-02 02:14:00
8:34 PM,44.6,39.2,81,29.79,0.5,WSW,5.8,-,N/A,,Haze,240,2012-12-02 02:34:00
8:54 PM,44.6,39.2,81,29.80,1.5,SW,4.6,-,N/A,,Haze,230,2012-12-02 02:54:00
9:14 PM,44.6,39.2,81,29.80,1.2,SW,5.8,-,N/A,,Haze,230,2012-12-02 03:14:00
9:34 PM,42.8,37.4,81,29.80,0.5,SW,5.8,-,N/A,,Haze,220,2012-12-02 03:34:00
9:54 PM,44.6,39.2,81,29.80,2.0,SW,4.6,-,N/A,,Haze,220,2012-12-02 03:54:00
10:14 PM,44.6,39.2,81,29.80,2.0,WSW,4.6,-,N/A,,Haze,240,2012-12-02 04:14:00
10:34 PM,44.6,39.2,81,29.80,2.5,SSW,4.6,-,N/A,,Haze,210,2012-12-02 04:34:00
10:54 PM,42.8,37.4,81,29.82,2.0,WSW,3.5,-,N/A,,Haze,250,2012-12-02 04:54:00
11:14 PM,42.8,37.4,81,29.83,2.0,WSW,5.8,-,N/A,,Haze,250,2012-12-02 05:14:00
11:34 PM,42.8,37.4,81,29.83,2.5,Calm,Calm,-,N/A,,Haze,0,2012-12-02 05:34:00
11:54 PM,42.8,37.4,81,29.84,3.0,West,6.9,-,N/A,,Haze,280,2012-12-02 05:54:00